Regional Weather Roundup
Issued by NWS

Home | Current Version | Previous Version | Graphics & Text | Print | Product List | Glossary On
Versions: 1 2 3 4 5 6 7 8 9 10 11 12 13 14 15 16 17 18 19 20 21 22 23 24 25 26 27 28 29 30 31 32 33 34 35 36 37 38 39 40 41 42 43 44 45 46 47 48 49 50
000
ASUS43 KFSD 281502
RWRSD

WEATHER ROUNDUP FOR SOUTH DAKOTA
NATIONAL WEATHER SERVICE SIOUX FALLS SD
1000 AM CDT FRI APR 28 2017

NOTE: "FAIR" INDICATES FEW OR NO CLOUDS BELOW 12,000 FEET WITH NO
SIGNIFICANT WEATHER AND/OR OBSTRUCTIONS TO VISIBILITY.


SDZ001>005-009-010-012>017-281600-
NORTHWEST AND NORTH CENTRAL SOUTH DAKOTA

CITY           SKY/WX    TMP DP  RH WIND       PRES   REMARKS
BUFFALO          N/A     39  28  64 E13       29.88R
FAITH            N/A     39  31  72 E13       29.94R
MOBRIDGE       SUNNY     45  21  38 NE13      29.95R
$$

SDZ012>016-024>037-041>051-057-063-072>074-281600-
SOUTHWEST AND SOUTH CENTRAL SOUTH DAKOTA

CITY           SKY/WX    TMP DP  RH WIND       PRES   REMARKS
RAPID CTY ARPT CLOUDY    39  30  70 NE10      29.89R
PIERRE         CLOUDY    40  26  57 E21       29.93R
CUSTER         LGT SNOW  28  24  85 NE21G28   29.79R VSB 3/4 WCI  15
ELLSWORTH AFB  CLOUDY    38  30  70 E10       29.89R
PHILIP         CLOUDY    40  32  73 E14       29.92R
PINE RIDGE     LGT SNOW  34  34 100 E15G21    29.83R FOG     WCI  24
SPEARFISH      PTSUNNY   36  30  80 E17       29.89R
WINNER         FAIR      42  31  64 E22G28    29.91R
$$

SDZ004>011-016>023-039-040-281600-
NORTHEAST SOUTH DAKOTA

CITY           SKY/WX    TMP DP  RH WIND       PRES   REMARKS
ABERDEEN       SUNNY     42  28  57 N14       29.98R
WATERTOWN      SUNNY     41  25  53 N18       29.92R
BROOKINGS      CLOUDY    39  25  57 NE17      29.92R
SISSETON         N/A     42  30  62 N12       29.96R
$$

SDZ017-020-022-023-036>040-048>070-281600-
SOUTHEAST SOUTH DAKOTA

CITY           SKY/WX    TMP DP  RH WIND       PRES   REMARKS
SIOUX FALLS    CLOUDY    40  32  73 NE9       29.91F
HURON          MOSUNNY   43  23  45 NE16      29.94S
CHAMBERLAIN    CLOUDY    42  32  67 NE15      29.93R
MITCHELL       CLOUDY    41  29  62 NE14      29.94R
YANKTON        CLOUDY    36  28  75 NE8       29.91S
$$

ABBREVIATIONS USED IN REMARKS
   TC - TEMPERATURE IN CELSIUS
  WCI - WIND CHILL INDEX
   HX - HEAT INDEX
  VSB - VISIBILITY





USA.gov is the U.S. government's official web portal to all federal, state and local government web resources and services.